Time,TemperatureF,DewpointF,PressureIn,WindDirection,WindDirectionDegrees,WindSpeedMPH,WindSpeedGustMPH,Humidity,HourlyPrecipIn,Conditions,Clouds,dailyrainin,SoftwareType,DateUTC
2013-12-09 00:22:00,41.0,13.0,30.26,WNW,290,4.0,6.0,31,0.00,,,-99.99,,2013-12-09 08:22:00,
2013-12-09 00:32:00,41.0,13.0,30.26,WNW,290,4.0,6.0,31,0.00,,,-99.99,,2013-12-09 08:32:00,
2013-12-09 00:42:00,41.0,13.0,30.26,WNW,290,4.0,6.0,31,0.00,,,-99.99,,2013-12-09 08:42:00,
2013-12-09 02:23:00,40.0,12.0,30.26,West,280,5.0,8.0,31,0.00,,,-99.99,,2013-12-09 10:23:00,
2013-12-09 02:33:00,40.0,12.0,30.26,West,280,5.0,8.0,31,0.00,,,-99.99,,2013-12-09 10:33:00,
2013-12-09 02:43:00,40.0,12.0,30.26,West,280,5.0,8.0,31,0.00,,,-99.99,,2013-12-09 10:43:00,
2013-12-09 03:42:00,40.0,10.0,30.25,West,280,8.0,9.0,28,0.00,,,-99.99,,2013-12-09 11:42:00,
2013-12-09 04:22:00,39.0,9.0,30.25,WNW,290,8.0,9.0,28,0.00,,,-99.99,,2013-12-09 12:22:00,
2013-12-09 04:32:00,39.0,9.0,30.25,WNW,290,8.0,9.0,28,0.00,,,-99.99,,2013-12-09 12:32:00,
2013-12-09 05:42:00,38.0,10.0,30.26,West,260,2.0,7.0,31,0.00,,,-99.99,,2013-12-09 13:42:00,
2013-12-09 06:42:00,39.0,6.0,30.29,WNW,290,5.0,9.0,25,0.00,,,-99.99,,2013-12-09 14:42:00,
2013-12-09 08:43:00,42.0,4.0,30.33,WSW,250,2.0,4.0,20,0.00,,,-99.99,,2013-12-09 16:43:00,
2013-12-09 09:42:00,46.0,2.0,30.35,WNW,290,6.0,9.0,16,0.00,,,-99.99,,2013-12-09 17:42:00,
2013-12-09 10:22:00,48.0,5.0,30.36,WNW,290,14.0,15.0,17,0.00,,,-99.99,,2013-12-09 18:22:00,
2013-12-09 10:32:00,48.0,5.0,30.36,WNW,290,14.0,15.0,17,0.00,,,-99.99,,2013-12-09 18:32:00,
2013-12-09 10:43:00,48.0,5.0,30.36,WNW,290,14.0,15.0,17,0.00,,,-99.99,,2013-12-09 18:43:00,
2013-12-09 11:42:00,50.0,3.0,30.35,NNW,330,9.0,12.0,14,0.00,,,-99.99,,2013-12-09 19:42:00,
2013-12-09 13:43:00,52.0,-1.0,30.32,NNW,330,7.0,14.0,11,0.00,,,-99.99,,2013-12-09 21:43:00,
2013-12-09 14:43:00,52.0,-1.0,30.32,NNW,330,15.0,16.0,11,0.00,,,-99.99,,2013-12-09 22:43:00,
2013-12-09 15:43:00,51.0,-4.0,30.32,NNW,340,12.0,16.0,10,0.00,,,-99.99,,2013-12-09 23:43:00,
2013-12-09 16:42:00,50.0,-4.0,30.33,NW,310,4.0,11.0,10,0.00,,,-99.99,,2013-12-10 00:42:00,
2013-12-09 17:22:00,47.0,-1.0,30.35,WNW,290,7.0,9.0,13,0.00,,,-99.99,,2013-12-10 01:22:00,
2013-12-09 17:32:00,47.0,-1.0,30.35,WNW,290,7.0,9.0,13,0.00,,,-99.99,,2013-12-10 01:32:00,
2013-12-09 17:42:00,47.0,-1.0,30.35,WNW,290,7.0,9.0,13,0.00,,,-99.99,,2013-12-10 01:42:00,
2013-12-09 18:42:00,45.0,-5.0,30.35,West,270,3.0,8.0,12,0.00,,,-99.99,,2013-12-10 02:42:00,
2013-12-09 19:43:00,40.0,2.0,30.37,SW,230,6.0,10.0,20,0.00,,,-99.99,,2013-12-10 03:43:00,
2013-12-09 20:43:00,42.0,-5.0,30.37,WNW,290,4.0,8.0,13,0.00,,,-99.99,,2013-12-10 04:43:00,
2013-12-09 21:42:00,44.0,-9.0,30.39,North,-999,0.0,7.0,10,0.00,,,-99.99,,2013-12-10 05:42:00,
2013-12-09 22:50:00,43.0,-6.0,30.37,WNW,300,9.0,9.0,12,0.00,,,-99.99,,2013-12-10 06:50:00,
2013-12-09 23:42:00,43.0,-6.0,30.37,WNW,300,9.0,9.0,12,0.00,,,-99.99,,2013-12-10 07:42:00,
2013-12-09 23:50:00,44.0,-9.0,30.35,West,270,2.0,7.0,10,0.00,,,-99.99,,2013-12-10 07:50:00,